QPF
0.00 0.00 0.00 0.00 0.00 0.00 0.00 0.00 0.00 0.00 0.00 0.00 0.00 0.00 0.00 0.00 0.00 0.00 0.00 0.00 0.00 0.00 0.00 0.00 0.00 0.00 0.00 0.00 0.00 0.00 0.00 0.00 0.00 0.00 0.00 0.00 0.00 0.00 0.00 0.00 0.00 0.00 0.00 0.00 0.00 0.00 0.00
0.00 0.00 0.00 0.00 0.00 0.00 0.00 0.00 0.00 0.00 0.00 0.00 0.00 0.00 0.00 0.00 0.00 0.00 0.00 0.00 0.00 0.00 0.00 0.00 0.00 0.00 0.00 0.00 0.00 0.00 0.00 0.00 0.00 0.00 0.00 0.00 0.00 0.00 0.00 0.00 0.00 0.00 0.00 0.00 0.00 0.00 0.00
0.00 0.00 0.00 0.00 0.00 0.00 0.00 0.00 0.00 0.00 0.00 0.00 0.00 0.00 0.00 0.00 0.00 0.00 0.00 0.00 0.00 0.00 0.00 0.00 0.00 0.00 0.00 0.00 0.00 0.00 0.00 0.00 0.00 0.00 0.00 0.00 0.00 0.00 0.00 0.00 0.00 0.00 0.00 0.00 0.00 0.00 0.00
0.00 0.00 0.00 0.00 0.00 0.00 0.00 0.00 0.00 0.00 0.00 0.00 0.00 0.00 0.00 0.00 0.00 0.00 0.00 0.00 0.00 0.00 0.00 0.00 0.00 0.00 0.00 0.00 0.00 0.00 0.00 0.00 0.00 0.00 0.00 0.00 0.00 0.00 0.00 0.00 0.00 0.00 0.00 0.00 0.00 0.00 0.00
0.00 0.00 0.00 0.00 0.00 0.00 0.00 0.00 0.00 0.00 0.00 0.00 0.00 0.00 0.00 0.00 0.00 0.00 0.00 0.00 0.00 0.00 0.00 0.00 0.00 0.00 0.00 0.00 0.00 0.00 0.00 0.00 0.00 0.00 0.00 0.00 0.00 0.00 0.00 0.00 0.00 0.00 0.00 0.00 0.00 0.00 0.00
0.00 0.00 0.00 0.00 0.01 0.01 0.01 0.01 0.00 0.00 0.00 0.00 0.00 0.00 0.00 0.00 0.00 0.00 0.00 0.00 0.00 0.00 0.00 0.00 0.00 0.00 0.00 0.00 0.00 0.00 0.00 0.00 0.00 0.00 0.00 0.00 0.00 0.00 0.00 0.00 0.00 0.00 0.00 0.00 0.00 0.00 0.00
0.00 0.00 0.00 0.00 0.00 0.01 0.02 0.02 0.01 0.01 0.00 0.00 0.00 0.00 0.00 0.00 0.00 0.00 0.00 0.01 0.01 0.02 0.00 0.00 0.00 0.00 0.00 0.00 0.00 0.00 0.00 0.00 0.00 0.00 0.00 0.00 0.00 0.00 0.00 0.00 0.00 0.00 0.00 0.00 0.00 0.00 0.00
0.00 0.00 0.00 0.00 0.00 0.00 0.01 0.02 0.02 0.01 0.00 0.00 0.00 0.00 0.01 0.01 0.01 0.02 0.01 0.00 0.00 0.00 0.00 0.00 0.00 0.00 0.00 0.00 0.00 0.00 0.00 0.00 0.00 0.00 0.00 0.00 0.00 0.00 0.00 0.00 0.00 0.00 0.00 0.00 0.00 0.00 0.00
0.00 0.00 0.00 0.00 0.00 0.00 0.00 0.02 0.02 0.01 0.01 0.00 0.00 0.00 0.01 0.02 0.04 0.07 0.05 0.00 0.00 0.00 0.00 0.00 0.00 0.00 0.00 0.00 0.00 0.00 0.00 0.00 0.00 0.00 0.00 0.00 0.00 0.00 0.00 0.00 0.00 0.00 0.00 0.00 0.00 0.00 0.00
0.00 0.00 0.00 0.00 0.00 0.00 0.00 0.01 0.02 0.02 0.01 0.01 0.01 0.00 0.01 0.05 0.06 0.04 0.05 0.03 0.00 0.00 0.01 0.00 0.00 0.00 0.00 0.00 0.00 0.00 0.00 0.00 0.00 0.00 0.00 0.00 0.00 0.00 0.00 0.00 0.00 0.00 0.00 0.00 0.00 0.00 0.00
0.00 0.00 0.00 0.00 0.00 0.00 0.00 0.01 0.02 0.02 0.02 0.01 0.01 0.00 0.01 0.05 0.06 0.02 0.03 0.05 0.00 0.05 0.02 0.00 0.00 0.00 0.00 0.00 0.00 0.00 0.00 0.00 0.00 0.00 0.00 0.00 0.00 0.00 0.00 0.00 0.00 0.00 0.00 0.00 0.00 0.00 0.00
0.00 0.00 0.00 0.00 0.00 0.00 0.00 0.00 0.02 0.02 0.02 0.01 0.02 0.01 0.01 0.03 0.07 0.03 0.03 0.05 0.03 0.02 0.00 0.00 0.00 0.00 0.00 0.00 0.00 0.00 0.00 0.00 0.00 0.00 0.00 0.00 0.00 0.00 0.00 0.00 0.00 0.00 0.00 0.00 0.00 0.00 0.00
0.00 0.00 0.00 0.00 0.00 0.00 0.00 0.00 0.01 0.02 0.02 0.02 0.02 0.03 0.01 0.02 0.03 0.05 0.04 0.03 0.01 0.00 0.00 0.00 0.00 0.00 0.00 0.00 0.00 0.00 0.00 0.00 0.00 0.00 0.00 0.00 0.00 0.00 0.00 0.00 0.00 0.00 0.00 0.00 0.00 0.00 0.00
0.00 0.00 0.00 0.00 0.00 0.00 0.00 0.00 0.01 0.01 0.02 0.03 0.03 0.04 0.03 0.01 0.05 0.05 0.03 0.01 0.00 0.00 0.00 0.00 0.00 0.00 0.00 0.00 0.00 0.00 0.00 0.00 0.00 0.00 0.00 0.00 0.00 0.00 0.00 0.00 0.00 0.00 0.00 0.00 0.00 0.00 0.00
0.01 0.01 0.01 0.00 0.00 0.00 0.00 0.00 0.00 0.01 0.02 0.03 0.05 0.04 0.04 0.01 0.04 0.05 0.03 0.00 0.00 0.00 0.00 0.00 0.00 0.00 0.00 0.00 0.00 0.00 0.00 0.00 0.00 0.00 0.00 0.00 0.00 0.00 0.00 0.00 0.00 0.00 0.00 0.00 0.00 0.00 0.00
0.01 0.01 0.00 0.00 0.01 0.00 0.00 0.00 0.01 0.02 0.02 0.03 0.03 0.02 0.01 0.01 0.02 0.05 0.02 0.00 0.00 0.00 0.00 0.00 0.00 0.00 0.00 0.00 0.00 0.00 0.00 0.00 0.00 0.00 0.00 0.00 0.00 0.00 0.00 0.00 0.00 0.00 0.00 0.00 0.00 0.00 0.00
0.01 0.01 0.01 0.00 0.00 0.00 0.00 0.01 0.02 0.02 0.02 0.03 0.03 0.03 0.00 0.01 0.02 0.03 0.01 0.00 0.00 0.00 0.00 0.00 0.00 0.00 0.00 0.00 0.00 0.00 0.00 0.00 0.00 0.00 0.00 0.00 0.00 0.00 0.00 0.00 0.00 0.00 0.00 0.00 0.00 0.00 0.00
0.01 0.01 0.00 0.00 0.01 0.01 0.01 0.01 0.02 0.02 0.02 0.04 0.02 0.01 0.00 0.00 0.01 0.00 0.00 0.00 0.00 0.00 0.00 0.00 0.00 0.02 0.01 0.00 0.00 0.00 0.00 0.00 0.00 0.00 0.00 0.00 0.00 0.00 0.00 0.00 0.00 0.00 0.00 0.00 0.00 0.00 0.00
0.00 0.01 0.00 0.00 0.01 0.02 0.02 0.03 0.03 0.03 0.01 0.01 0.01 0.02 0.04 0.00 0.00 0.00 0.00 0.00 0.00 0.00 0.00 0.00 0.00 0.00 0.02 0.02 0.01 0.00 0.00 0.00 0.00 0.00 0.00 0.00 0.00 0.00 0.00 0.00 0.00 0.00 0.00 0.00 0.00 0.00 0.00
0.00 0.00 0.00 0.00 0.01 0.02 0.03 0.03 0.03 0.02 0.01 0.00 0.01 0.01 0.06 0.02 0.00 0.00 0.00 0.00 0.00 0.00 0.00 0.00 0.00 0.00 0.01 0.01 0.02 0.01 0.00 0.00 0.00 0.00 0.00 0.00 0.00 0.00 0.00 0.00 0.00 0.00 0.00 0.00 0.00 0.00 0.00
0.01 0.00 0.00 0.00 0.01 0.02 0.02 0.02 0.03 0.02 0.01 0.01 0.01 0.00 0.00 0.01 0.00 0.00 0.00 0.00 0.00 0.00 0.01 0.01 0.03 0.01 0.00 0.00 0.01 0.01 0.00 0.00 0.00 0.00 0.00 0.00 0.00 0.00 0.00 0.00 0.00 0.00 0.00 0.00 0.00 0.00 0.00
0.01 0.01 0.00 0.00 0.00 0.03 0.03 0.02 0.02 0.03 0.02 0.03 0.00 0.00 0.01 0.00 0.00 0.00 0.00 0.00 0.00 0.00 0.01 0.01 0.01 0.00 0.00 0.00 0.00 0.00 0.00 0.01 0.00 0.00 0.00 0.00 0.00 0.00 0.00 0.00 0.00 0.00 0.00 0.00 0.00 0.00 0.00
0.00 0.01 0.01 0.00 0.00 0.02 0.04 0.03 0.04 0.04 0.02 0.01 0.00 0.00 0.01 0.00 0.01 0.01 0.00 0.00 0.00 0.00 0.01 0.01 0.00 0.00 0.01 0.00 0.00 0.00 0.01 0.01 0.01 0.01 0.00 0.00 0.00 0.00 0.00 0.00 0.00 0.00 0.00 0.00 0.00 0.00 0.00
0.00 0.01 0.01 0.00 0.00 0.01 0.03 0.03 0.03 0.01 0.00 0.00 0.00 0.01 0.02 0.00 0.01 0.01 0.00 0.00 0.00 0.01 0.01 0.01 0.01 0.02 0.00 0.01 0.03 0.02 0.01 0.00 0.00 0.00 0.00 0.00 0.00 0.00 0.00 0.00 0.00 0.00 0.00 0.00 0.00 0.00 0.00
0.00 0.01 0.01 0.01 0.03 0.03 0.02 0.01 0.01 0.00 0.00 0.00 0.00 0.00 0.01 0.00 0.00 0.01 0.00 0.00 0.00 0.00 0.01 0.02 0.01 0.00 0.04 0.08 0.06 0.01 0.00 0.00 0.00 0.00 0.00 0.00 0.00 0.00 0.00 0.00 0.00 0.00 0.00 0.00 0.00 0.00 0.00
0.00 0.01 0.01 0.00 0.04 0.05 0.06 0.03 0.02 0.02 0.00 0.00 0.01 0.01 0.01 0.00 0.00 0.00 0.01 0.00 0.00 0.00 0.00 0.00 0.00 0.03 0.12 0.10 0.04 0.00 0.00 0.00 0.00 0.00 0.01 0.00 0.00 0.00 0.00 0.00 0.00 0.00 0.00 0.00 0.00 0.00 0.00
0.00 0.00 0.00 0.00 0.01 0.03 0.04 0.05 0.03 0.02 0.01 0.00 0.02 0.03 0.04 0.02 0.00 0.01 0.02 0.00 0.01 0.00 0.00 0.00 0.01 0.09 0.11 0.06 0.02 0.00 0.00 0.00 0.00 0.00 0.00 0.00 0.00 0.00 0.00 0.00 0.00 0.00 0.00 0.00 0.00 0.00 0.00
0.00 0.00 0.00 0.00 0.01 0.00 0.01 0.04 0.04 0.04 0.02 0.00 0.02 0.07 0.03 0.01 0.01 0.00 0.01 0.01 0.00 0.00 0.00 0.00 0.02 0.04 0.07 0.05 0.01 0.00 0.00 0.00 0.00 0.00 0.00 0.00 0.00 0.00 0.00 0.00 0.00 0.00 0.00 0.00 0.00 0.00 0.00
0.00 0.00 0.00 0.00 0.00 0.00 0.01 0.02 0.04 0.04 0.05 0.02 0.01 0.06 0.04 0.01 0.00 0.00 0.00 0.00 0.00 0.00 0.00 0.00 0.01 0.01 0.02 0.02 0.00 0.00 0.00 0.00 0.00 0.00 0.00 0.00 0.00 0.00 0.00 0.00 0.00 0.00 0.00 0.00 0.00 0.00 0.00
MSLP
1014.28 1014.19 1014.11 1014.03 1014.01 1013.97 1014.08 1014.19 1014.29 1014.58 1014.78 1014.70 1014.44 1013.81 1013.83 1014.41 1014.66 1015.11 1015.49 1015.69 1016.24 1016.48 1016.44 1016.62 1016.52 1016.23 1015.82 1015.01 1012.54 1011.13 1011.32 1011.29 1011.00 1010.89 1010.92 1010.69 1010.33 1010.09 1009.87 1009.09 1008.61 1008.23 1008.26 1008.13 1007.74 1007.75 1007.90
1013.98 1013.86 1013.72 1013.61 1013.55 1013.56 1013.57 1013.67 1013.82 1013.98 1014.32 1014.44 1014.72 1013.88 1013.61 1013.74 1014.07 1014.67 1015.04 1015.22 1015.83 1016.28 1016.37 1016.40 1016.53 1016.49 1016.10 1014.30 1011.13 1010.66 1010.92 1011.06 1010.88 1010.66 1010.45 1010.26 1010.20 1009.86 1009.56 1009.16 1009.04 1008.64 1008.59 1008.57 1008.34 1008.11 1007.90
1013.45 1013.35 1013.25 1013.08 1013.02 1012.92 1012.96 1013.02 1013.27 1013.41 1013.66 1014.09 1013.97 1013.97 1013.59 1013.00 1013.51 1014.12 1014.61 1014.82 1015.32 1016.05 1016.26 1016.21 1016.44 1016.50 1015.08 1012.54 1010.71 1010.76 1010.49 1010.63 1010.46 1010.43 1010.42 1009.90 1010.02 1010.28 1010.08 1009.43 1009.04 1008.79 1009.26 1009.09 1008.59 1008.25 1008.17
1012.95 1012.82 1012.65 1012.49 1012.46 1012.40 1012.33 1012.36 1012.54 1012.81 1013.10 1013.20 1013.58 1013.73 1013.26 1013.08 1012.86 1013.57 1014.13 1014.66 1015.04 1015.74 1016.03 1016.17 1016.37 1016.27 1013.81 1011.32 1010.96 1011.07 1010.76 1010.42 1010.21 1010.07 1010.32 1010.22 1010.18 1010.56 1010.46 1009.93 1009.66 1009.74 1009.86 1009.58 1008.08 1007.84 1007.77
1012.38 1012.22 1012.06 1011.89 1011.92 1011.86 1011.84 1011.86 1011.89 1012.03 1012.27 1012.58 1012.88 1013.07 1013.13 1012.56 1012.67 1013.00 1013.76 1014.29 1014.97 1015.56 1015.86 1016.17 1016.31 1015.70 1012.84 1010.10 1010.34 1010.15 1010.19 1010.32 1010.37 1010.39 1010.39 1010.55 1010.85 1011.03 1010.49 1010.72 1010.76 1010.26 1009.96 1009.47 1008.37 1007.08 1007.62
1011.65 1011.55 1011.44 1011.33 1011.30 1011.39 1011.42 1011.41 1011.40 1011.39 1011.57 1011.76 1011.91 1012.38 1012.66 1012.63 1013.00 1012.27 1013.45 1014.24 1015.07 1015.75 1016.05 1015.62 1015.41 1015.05 1012.19 1009.76 1009.18 1009.08 1009.54 1009.78 1010.40 1010.68 1011.00 1011.19 1011.59 1011.37 1011.13 1011.13 1010.63 1010.16 1009.92 1009.12 1008.32 1007.33 1006.99
1010.88 1010.85 1010.85 1010.79 1010.83 1010.84 1010.87 1010.78 1010.78 1010.83 1010.90 1011.05 1011.27 1011.64 1012.39 1012.38 1012.15 1012.04 1013.00 1014.33 1015.45 1015.52 1014.72 1012.96 1012.52 1011.32 1009.08 1008.74 1008.38 1008.65 1008.78 1009.45 1010.19 1010.82 1011.28 1011.44 1011.78 1011.22 1010.76 1010.17 1010.01 1009.60 1009.37 1009.05 1007.77 1007.16 1007.27
1010.20 1010.20 1010.17 1010.08 1010.17 1010.20 1010.20 1010.13 1010.13 1010.12 1010.26 1010.46 1010.68 1011.06 1011.65 1011.93 1011.39 1012.54 1011.31 1011.48 1010.87 1011.17 1012.97 1012.65 1011.85 1011.22 1009.05 1009.42 1008.87 1008.20 1008.43 1009.45 1010.25 1010.47 1011.20 1011.55 1010.37 1010.41 1010.09 1010.09 1009.92 1009.60 1009.09 1008.61 1007.50 1007.23 1007.46
1009.35 1009.29 1009.32 1009.36 1009.44 1009.37 1009.33 1009.28 1009.31 1009.37 1009.38 1009.59 1010.06 1010.50 1010.91 1011.48 1010.91 1012.15 1011.32 1009.96 1010.44 1010.24 1011.29 1010.39 1010.09 1009.66 1009.64 1009.42 1008.84 1007.76 1007.87 1008.34 1009.14 1010.05 1010.34 1010.24 1008.98 1009.26 1009.38 1009.07 1009.12 1008.90 1008.62 1008.25 1008.00 1007.47 1007.35
1008.68 1008.63 1008.64 1008.60 1008.51 1008.45 1008.45 1008.35 1008.31 1008.33 1008.33 1008.58 1009.05 1009.69 1010.13 1010.65 1010.64 1010.43 1010.61 1011.00 1010.57 1011.49 1011.66 1008.71 1008.62 1007.23 1008.29 1008.79 1007.71 1007.60 1007.45 1008.42 1008.64 1009.15 1010.12 1009.47 1008.90 1008.57 1008.36 1008.16 1008.20 1007.97 1007.76 1007.90 1008.21 1008.59 1008.38
1007.92 1007.91 1007.87 1007.72 1007.59 1007.49 1007.36 1007.28 1007.25 1007.19 1007.20 1007.47 1008.04 1008.75 1009.36 1010.21 1009.06 1009.24 1009.27 1010.41 1010.99 1011.54 1009.79 1006.66 1005.70 1005.55 1005.78 1006.91 1005.76 1005.97 1006.81 1007.42 1007.77 1007.83 1008.89 1006.96 1007.14 1007.48 1006.93 1006.83 1007.34 1007.32 1007.69 1008.40 1008.79 1009.10 1009.00
1007.09 1007.01 1006.88 1006.72 1006.57 1006.34 1006.10 1006.00 1006.02 1006.06 1006.09 1006.38 1007.00 1007.70 1008.62 1009.03 1008.37 1007.84 1009.51 1010.57 1010.57 1009.48 1006.27 1004.21 1003.12 1003.73 1005.10 1005.49 1005.29 1005.19 1005.92 1006.73 1006.95 1007.62 1007.00 1006.75 1006.21 1006.41 1005.74 1006.14 1006.58 1007.33 1007.97 1008.86 1009.45 1009.90 1009.67
1006.18 1006.00 1005.83 1005.54 1005.19 1004.89 1004.62 1004.55 1004.67 1004.89 1005.02 1005.29 1006.00 1006.70 1007.81 1007.96 1007.56 1007.74 1008.64 1009.47 1008.35 1006.11 1005.84 1003.79 1002.16 1002.60 1002.65 1004.08 1005.39 1005.06 1005.47 1005.77 1005.86 1007.08 1006.20 1006.78 1005.87 1005.81 1005.25 1005.88 1006.16 1006.82 1008.19 1009.91 1010.75 1010.77 1009.21
1005.15 1004.86 1004.59 1004.18 1003.76 1003.39 1003.13 1002.98 1003.01 1003.51 1003.93 1004.34 1005.16 1006.11 1006.64 1007.07 1008.11 1007.79 1007.99 1007.17 1005.53 1004.88 1004.64 1002.42 1001.57 1002.38 1002.67 1003.01 1004.19 1004.32 1004.61 1005.01 1005.46 1005.13 1005.61 1005.47 1005.25 1004.81 1004.51 1004.72 1005.47 1006.38 1007.37 1008.53 1009.80 1010.38 1008.81
1004.14 1003.71 1003.28 1002.85 1002.27 1001.75 1001.48 1001.23 1001.29 1002.00 1002.79 1003.42 1004.49 1005.79 1006.59 1006.70 1007.17 1007.98 1006.72 1005.85 1004.22 1003.98 1002.92 1001.68 1000.54 1001.64 1002.35 1002.14 1002.14 1003.40 1003.29 1002.89 1003.28 1003.57 1003.86 1004.46 1004.04 1003.69 1003.97 1004.25 1004.89 1006.09 1006.80 1007.71 1008.96 1009.30 1009.22
1003.20 1002.71 1002.13 1001.44 1000.75 1000.18 999.74 999.45 999.71 1000.56 1001.55 1002.44 1003.70 1005.16 1005.30 1006.07 1006.80 1007.18 1005.00 1004.69 1004.96 1003.24 1001.38 1000.95 1000.34 1000.42 1000.90 1000.94 1001.46 1002.39 1001.96 1001.11 1002.11 1002.81 1003.17 1003.15 1004.04 1003.40 1003.54 1004.35 1004.45 1004.90 1006.54 1008.19 1008.99 1009.70 1009.29
1002.32 1001.71 1000.94 1000.12 999.29 998.46 997.72 997.27 997.94 999.09 1000.32 1001.49 1002.95 1004.27 1003.74 1005.01 1006.46 1005.94 1004.09 1003.54 1004.31 1003.02 1001.10 1000.69 1000.89 1000.72 1000.43 1000.64 1000.82 1001.18 1000.18 1000.66 1001.30 1001.69 1002.94 1003.28 1003.34 1003.13 1003.23 1002.37 1003.55 1005.11 1005.84 1006.54 1007.76 1008.17 1007.92
1001.31 1000.51 999.71 998.77 997.78 996.77 995.53 995.30 996.35 997.87 999.40 1000.93 1002.15 1003.25 1003.39 1004.72 1005.62 1004.35 1004.40 1003.09 1002.53 1002.33 1000.98 1000.92 1000.12 1000.20 1000.03 1000.30 1000.40 1000.60 999.76 999.23 999.69 1000.82 1002.18 1002.43 1003.58 1003.53 1002.58 1002.28 1002.70 1003.28 1003.41 1004.71 1005.95 1006.97 1007.07
1000.24 999.45 998.60 997.52 996.62 995.56 994.50 994.72 995.69 996.90 998.13 999.78 1001.51 1002.36 1003.42 1003.95 1003.73 1003.73 1004.07 1003.34 1001.88 1000.98 1000.76 1001.20 1000.12 999.78 1000.03 1000.18 1000.39 999.85 999.59 999.22 999.23 999.95 1000.39 1002.12 1002.81 1003.84 1004.02 1003.17 1002.05 1002.15 1003.63 1004.33 1005.25 1005.91 1005.53
999.45 998.47 997.48 996.63 995.63 994.75 994.19 994.57 995.40 996.37 997.25 999.21 1000.75 1002.43 1003.48 1003.54 1003.46 1003.63 1003.75 1002.23 1001.58 1000.83 1000.14 1001.12 999.94 1000.05 1000.14 1000.45 1000.56 1000.13 999.26 999.17 999.42 999.62 1000.43 1001.69 1001.93 1001.50 1000.20 999.68 1001.77 1002.16 1002.37 1003.33 1004.27 1004.68 1004.71
998.68 997.67 996.48 995.62 994.64 993.74 993.59 994.14 994.96 995.81 996.74 998.07 999.32 1000.80 1001.37 1002.38 1003.27 1003.18 1003.00 1002.77 1001.54 1000.45 1000.60 1000.87 1000.60 999.66 999.61 1000.02 1000.29 1000.31 1000.07 999.70 999.10 999.54 1000.13 1001.18 1001.32 1001.95 1001.54 1001.76 1001.79 1001.82 1001.96 1002.05 1002.32 1002.46 1003.33
998.12 997.02 995.83 994.76 993.83 993.07 992.67 993.38 994.29 995.22 996.55 997.39 998.76 999.92 1000.34 1001.32 1002.06 1003.24 1003.12 1002.09 1001.00 1000.81 1000.02 1000.02 999.74 999.12 999.28 998.95 999.74 1000.24 1000.40 1000.47 999.54 999.89 1000.07 1001.61 1002.22 1002.91 1002.57 1002.53 1002.32 1001.51 1001.00 1000.85 1001.15 1001.60 1001.95
997.39 996.11 994.95 993.80 992.97 992.42 992.03 992.61 993.87 994.97 996.57 997.27 998.19 998.58 999.70 1000.80 1001.71 1002.03 1001.65 1001.67 1001.23 1000.48 999.89 999.60 999.40 999.51 999.37 997.95 999.40 1000.20 1000.50 1001.02 1000.56 1000.83 1001.12 1001.24 1002.51 1002.85 1002.52 1003.08 1002.94 1002.15 999.28 1000.35 1000.56 1000.56 1000.78
996.81 995.35 993.88 992.75 991.67 991.70 992.14 992.42 993.39 994.85 996.41 996.78 997.54 998.36 999.95 1000.77 1001.04 1001.07 1000.91 1000.91 1000.99 1001.67 1000.61 998.84 998.71 999.18 997.45 999.35 1000.02 1000.74 1001.31 1001.39 1001.17 1000.92 1001.78 1001.36 1003.00 1002.68 1003.21 1003.49 1002.72 1000.22 999.89 1000.01 999.95 999.91 999.92
996.45 994.95 993.33 991.91 990.29 991.08 992.25 993.32 994.29 995.25 996.19 996.79 997.42 998.45 999.46 1000.33 1000.43 1000.80 1000.99 1001.17 1001.97 1001.73 1000.81 999.52 998.08 997.66 998.60 999.39 1000.63 1002.20 1002.52 1001.82 1001.31 1000.88 1001.40 1001.52 1002.53 1003.77 1003.63 1003.27 1002.69 1000.93 999.24 999.06 999.33 999.60 999.59
996.35 995.02 993.31 991.90 991.32 991.68 992.56 993.48 994.36 995.25 996.25 997.16 997.54 998.03 999.19 1000.02 999.89 1000.09 1000.80 1001.20 1001.42 1001.24 1000.85 1000.04 999.59 998.88 999.05 1000.11 1000.83 1001.39 1002.13 1001.44 1001.90 1001.20 1001.06 1001.63 1002.04 1003.28 1004.02 1003.75 1002.20 1000.04 998.74 998.54 999.36 999.64 999.30
996.45 995.25 993.97 992.65 992.10 992.35 992.89 993.71 994.52 995.39 996.31 997.41 997.96 998.10 999.34 1000.08 999.89 999.80 999.89 1000.39 1000.41 1001.01 1000.29 999.77 999.40 999.34 999.02 999.80 1000.01 1000.91 1001.28 1001.19 1001.64 1001.50 1000.93 1001.17 1003.05 1002.73 1003.33 1003.19 1001.54 999.51 998.56 998.67 1000.39 999.95 999.63
996.73 995.56 994.61 993.60 992.71 992.72 993.29 994.08 994.70 995.56 996.40 997.42 998.19 998.55 999.39 1000.18 1000.39 1000.33 1000.24 1000.68 1001.26 1001.71 1001.52 1000.53 999.23 998.42 998.02 998.63 999.39 1000.05 1000.78 1000.66 1000.89 1000.17 1000.32 1001.63 1002.24 1002.79 1003.27 1002.67 1001.26 998.80 998.71 999.33 1000.06 999.93 1000.08
997.11 996.02 994.80 993.84 992.92 993.13 993.76 994.40 994.90 995.61 996.45 997.62 998.59 998.83 999.50 1000.47 1001.24 1001.22 1001.00 1000.82 1000.91 1001.27 1001.97 1001.67 1000.08 999.63 998.16 997.67 998.47 999.64 1000.28 999.98 999.77 1000.05 999.59 1000.11 999.62 1001.26 1001.77 1001.05 999.53 998.55 998.34 998.69 998.91 999.77 1000.40
Thickness
5530 5534 5538 5542 5548 5554 5560 5566 5572 5580 5587 5597 5608 5620 5627 5632 5637 5640 5644 5650 5652 5656 5661 5666 5671 5679 5686 5692 5713 5742 5745 5748 5753 5757 5752 5752 5753 5754 5746 5762 5769 5771 5776 5780 5792 5796 5791
5511 5515 5520 5524 5528 5535 5542 5549 5555 5564 5572 5582 5590 5605 5615 5622 5628 5631 5635 5641 5643 5646 5651 5656 5660 5666 5671 5678 5727 5738 5740 5742 5746 5748 5749 5752 5749 5761 5757 5758 5756 5772 5769 5770 5782 5780 5787
5494 5498 5502 5507 5511 5515 5522 5530 5538 5547 5558 5567 5577 5587 5601 5614 5619 5622 5625 5631 5634 5635 5640 5646 5649 5654 5665 5694 5719 5728 5738 5736 5743 5745 5740 5754 5756 5746 5746 5751 5764 5765 5751 5754 5767 5774 5769
5476 5479 5483 5487 5492 5496 5502 5510 5519 5529 5541 5555 5564 5572 5587 5599 5609 5613 5616 5618 5622 5624 5630 5634 5637 5643 5661 5705 5706 5716 5726 5729 5740 5742 5740 5748 5749 5739 5740 5749 5749 5742 5741 5726 5765 5767 5771
5459 5461 5465 5469 5470 5476 5480 5487 5498 5510 5524 5539 5551 5563 5570 5587 5596 5602 5604 5607 5608 5611 5616 5620 5627 5634 5656 5704 5696 5716 5720 5715 5723 5727 5733 5738 5732 5725 5734 5719 5712 5725 5709 5722 5741 5771 5762
5445 5446 5448 5450 5451 5453 5458 5464 5475 5489 5505 5522 5539 5551 5559 5568 5577 5591 5586 5587 5593 5596 5600 5610 5620 5622 5657 5684 5700 5710 5716 5717 5709 5709 5707 5711 5704 5701 5704 5699 5687 5710 5713 5726 5726 5755 5758
5431 5432 5433 5434 5435 5437 5441 5447 5455 5468 5485 5504 5523 5539 5546 5548 5564 5575 5569 5568 5571 5580 5594 5617 5630 5647 5675 5685 5699 5699 5710 5705 5700 5693 5677 5693 5680 5676 5700 5717 5723 5723 5719 5717 5738 5757 5750
5418 5419 5422 5425 5426 5429 5432 5435 5440 5451 5467 5485 5507 5524 5534 5539 5551 5549 5567 5577 5606 5613 5590 5607 5621 5635 5663 5664 5668 5687 5699 5682 5676 5674 5683 5677 5681 5700 5716 5714 5710 5710 5707 5709 5737 5751 5741
5409 5412 5416 5418 5420 5424 5426 5429 5433 5439 5453 5471 5489 5504 5521 5533 5536 5534 5549 5582 5592 5589 5579 5600 5618 5630 5646 5649 5660 5679 5689 5689 5680 5671 5676 5672 5703 5710 5706 5707 5703 5705 5705 5714 5717 5734 5735
5397 5401 5407 5412 5416 5419 5421 5425 5428 5433 5444 5458 5476 5488 5504 5521 5517 5533 5540 5556 5568 5552 5536 5591 5604 5632 5636 5637 5644 5674 5683 5669 5670 5664 5667 5675 5696 5696 5696 5699 5705 5695 5723 5723 5716 5703 5685
5385 5391 5397 5405 5411 5415 5419 5422 5426 5430 5437 5447 5463 5473 5490 5499 5527 5529 5552 5546 5551 5534 5519 5591 5615 5636 5646 5636 5663 5671 5677 5669 5659 5670 5668 5688 5695 5691 5697 5705 5709 5701 5717 5705 5705 5695 5695
5375 5382 5391 5400 5407 5413 5418 5422 5424 5429 5433 5440 5451 5465 5475 5487 5514 5539 5527 5529 5534 5525 5527 5593 5620 5624 5621 5638 5645 5661 5659 5669 5675 5662 5678 5684 5702 5696 5703 5710 5708 5710 5697 5694 5690 5683 5654
5369 5376 5385 5396 5406 5414 5420 5423 5425 5427 5430 5436 5442 5454 5462 5474 5510 5525 5524 5524 5525 5527 5537 5586 5608 5622 5636 5631 5626 5637 5642 5642 5642 5626 5646 5662 5678 5691 5705 5687 5700 5694 5673 5643 5641 5634 5648
5366 5373 5381 5394 5406 5415 5421 5426 5429 5428 5429 5432 5435 5439 5451 5470 5485 5504 5509 5528 5529 5535 5543 5595 5609 5605 5611 5632 5621 5634 5635 5634 5650 5661 5650 5651 5644 5678 5692 5692 5687 5684 5683 5654 5627 5631 5669
5363 5371 5380 5394 5407 5418 5424 5430 5433 5430 5429 5430 5428 5423 5430 5455 5470 5472 5493 5504 5526 5542 5570 5583 5605 5584 5594 5617 5633 5626 5628 5647 5663 5671 5655 5646 5656 5693 5692 5699 5696 5678 5663 5690 5662 5666 5623
5361 5369 5379 5395 5409 5420 5428 5434 5435 5432 5430 5428 5420 5416 5435 5445 5454 5454 5490 5504 5499 5545 5582 5578 5584 5592 5587 5609 5614 5607 5626 5659 5656 5665 5676 5667 5642 5680 5690 5681 5688 5680 5682 5643 5640 5622 5625
5360 5368 5381 5399 5412 5424 5434 5441 5439 5435 5430 5426 5415 5406 5436 5440 5442 5448 5473 5488 5511 5541 5567 5570 5565 5578 5592 5597 5612 5611 5637 5651 5656 5665 5662 5661 5653 5662 5671 5673 5664 5661 5655 5659 5655 5646 5628
5363 5375 5389 5403 5416 5427 5442 5447 5442 5434 5428 5419 5410 5404 5426 5424 5430 5431 5455 5487 5526 5535 5556 5556 5577 5583 5589 5598 5603 5604 5626 5652 5662 5660 5639 5661 5641 5630 5656 5686 5688 5677 5674 5666 5633 5632 5641
5370 5381 5392 5405 5415 5427 5439 5441 5437 5433 5428 5420 5410 5412 5411 5416 5428 5442 5440 5473 5513 5535 5544 5542 5567 5583 5589 5590 5588 5609 5623 5649 5653 5645 5646 5647 5614 5603 5613 5644 5664 5655 5655 5660 5656 5644 5643
5374 5385 5395 5404 5415 5424 5430 5429 5428 5426 5426 5417 5404 5394 5397 5402 5420 5441 5446 5471 5501 5524 5542 5540 5564 5575 5577 5577 5582 5595 5612 5631 5638 5642 5637 5635 5627 5630 5638 5664 5655 5646 5653 5653 5648 5633 5637
5378 5388 5398 5404 5413 5422 5424 5419 5417 5419 5419 5415 5406 5402 5409 5410 5409 5428 5448 5469 5495 5513 5526 5534 5543 5563 5576 5572 5577 5583 5598 5610 5630 5633 5631 5624 5614 5620 5638 5645 5649 5647 5643 5647 5643 5652 5633
5378 5387 5397 5404 5413 5421 5426 5420 5415 5414 5413 5409 5401 5408 5416 5415 5417 5420 5430 5452 5484 5505 5526 5531 5543 5565 5575 5579 5581 5580 5590 5594 5611 5620 5622 5608 5596 5606 5608 5626 5633 5635 5650 5651 5650 5650 5647
5381 5390 5399 5407 5414 5419 5424 5422 5413 5411 5408 5403 5409 5418 5414 5418 5414 5418 5433 5455 5469 5505 5520 5535 5546 5550 5555 5592 5592 5587 5586 5589 5597 5601 5603 5612 5598 5599 5599 5610 5611 5600 5649 5641 5647 5655 5651
5382 5393 5402 5410 5419 5419 5418 5419 5415 5409 5408 5411 5411 5410 5400 5393 5411 5423 5437 5448 5461 5464 5501 5537 5543 5538 5585 5571 5570 5568 5567 5575 5584 5591 5588 5602 5589 5594 5588 5587 5583 5628 5638 5639 5639 5649 5656
5383 5393 5401 5411 5422 5410 5405 5407 5408 5406 5405 5406 5407 5402 5397 5386 5410 5418 5425 5438 5443 5458 5470 5504 5538 5561 5565 5557 5544 5531 5530 5550 5561 5586 5588 5593 5580 5561 5580 5586 5588 5612 5635 5632 5625 5635 5651
5381 5388 5398 5407 5404 5395 5395 5399 5402 5402 5400 5398 5400 5402 5397 5387 5400 5424 5413 5424 5433 5448 5462 5480 5513 5540 5542 5522 5523 5543 5542 5546 5546 5567 5579 5580 5584 5575 5566 5573 5583 5601 5635 5641 5635 5607 5645
5379 5385 5391 5399 5401 5398 5398 5398 5399 5398 5395 5393 5392 5397 5389 5378 5396 5412 5408 5417 5439 5446 5465 5486 5506 5515 5534 5528 5526 5531 5547 5555 5548 5550 5563 5571 5551 5563 5559 5568 5576 5610 5628 5623 5592 5611 5637
5376 5382 5386 5391 5397 5397 5396 5395 5394 5394 5392 5390 5386 5387 5383 5373 5385 5390 5403 5405 5413 5421 5443 5463 5495 5506 5516 5529 5529 5522 5526 5539 5543 5561 5568 5553 5549 5550 5542 5557 5564 5613 5613 5594 5613 5621 5621
5369 5377 5384 5388 5395 5395 5392 5391 5391 5390 5386 5382 5376 5380 5378 5371 5372 5374 5382 5391 5405 5418 5421 5434 5459 5483 5516 5528 5517 5523 5523 5536 5549 5550 5566 5559 5571 5560 5564 5566 5595 5612 5611 5607 5611 5611 5613